Weather History for Tri-Cities, TN

Change the Weather History Date:

Tuesday, November 6, 2012

  Actual Average Record
Temperature  
Mean Temperature 38 °F 50 °F  
Max Temperature 44 °F 63 °F 79 °F (1943)
Min Temperature 31 °F 37 °F 20 °F (1939)
Degree Days  
Heating Degree Days 27 15  
Month to date heating degree days 118 87  
Since 1 July heating degree days 460 422  
Cooling Degree Days 0 0  
Month to date cooling degree days 0 0  
Year to date cooling degree days 1191 980  
Moisture  
Dew Point 33 °F    
Average Humidity 76    
Maximum Humidity 85    
Minimum Humidity 67    
Precipitation  
Precipitation T in 0.10 in 2.04 in (1977)
Month to date precipitation 0.01 0.55  
Year to date precipitation 41.62 35.09  
Snow  
Snow 0.00 in 0.00 in - ()
Month to date snowfall 0.0 0.0  
Since 1 July snowfall T 0.1  
Since 1 September snowfall T 0.1  
Snow Depth 0.00 in    
Sea Level Pressure  
Sea Level Pressure 29.98 in    
Wind  
Wind Speed 1 mph (SSE)    
Max Wind Speed 9 mph    
Max Gust Speed 14 mph    
Visibility 10 miles    
Events Rain    
T = Trace of Precipitation, MM = Missing Value Source: NWS Daily Summary

Daily Weather History Graph

Daily Weather History Graph

Search for Another Location

Airport:

Trip Planner

Search our weather history database for the weather conditions in past years. The results will help you decide how hot, cold, wet, or windy it might be!

Date:

Astronomy

Nov. 06, 2012 Rise Set
Actual Time 6:58 AM EST 5:27 PM EST
Civil Twilight 6:31 AM EST 5:54 PM EST
Nautical Twilight 6:00 AM EST 6:25 PM EST
Astronomical Twilight 5:30 AM EST 6:55 PM EST
Moon No Moon Rise 12:51 PM EST (11/6)
Length of Visible Light 11h 23m
Length of Day
10h 29m
Waning Gibbous, 53% of the Moon is Illuminated
Nov 6
Waning Gibbous
Nov 6
Last Quarter
Nov 13
New
Nov 20
First Quarter
Nov 28
Full

Hourly Weather History & Observations

Time (EST) Temp. Windchill Dew Point Humidity Pressure Visibility Wind Dir Wind Speed Gust Speed Precip Events Conditions
12:53 AM 34.0 °F - 28.9 °F 82% 30.00 in 10.0 mi Calm Calm - N/A   Clear
1:53 AM 32.0 °F - 28.0 °F 85% 29.99 in 10.0 mi Calm Calm - N/A   Scattered Clouds
2:53 AM 32.0 °F - 28.0 °F 85% 29.98 in 10.0 mi Calm Calm - N/A   Scattered Clouds
3:53 AM 32.0 °F - 28.0 °F 85% 29.98 in 10.0 mi Calm Calm - N/A   Scattered Clouds
4:53 AM 33.1 °F - 28.0 °F 82% 29.99 in 10.0 mi Calm Calm - N/A   Scattered Clouds
5:53 AM 34.0 °F - 28.0 °F 79% 29.99 in 10.0 mi Calm Calm - N/A   Mostly Cloudy
6:53 AM 34.0 °F - 28.0 °F 79% 30.01 in 10.0 mi Calm Calm - N/A   Mostly Cloudy
7:53 AM 36.0 °F - 28.9 °F 76% 30.03 in 10.0 mi Calm Calm - N/A   Overcast
8:53 AM 39.0 °F - 33.1 °F 79% 30.03 in 10.0 mi Calm Calm - N/A   Overcast
9:53 AM 42.1 °F - 32.0 °F 67% 30.04 in 10.0 mi Calm Calm - N/A   Overcast
10:53 AM 43.0 °F - 34.0 °F 71% 30.04 in 10.0 mi Calm Calm - 0.00 in Rain Light Rain
11:53 AM 44.1 °F 40.8 °F 35.1 °F 71% 30.02 in 10.0 mi SE 5.8 mph - 0.00 in Rain Light Rain
12:53 PM 43.0 °F 41.3 °F 36.0 °F 76% 30.00 in 10.0 mi ESE 3.5 mph - 0.00 in   Overcast
1:53 PM 43.0 °F 41.3 °F 37.0 °F 80% 29.99 in 10.0 mi SSE 3.5 mph - 0.00 in Rain Light Rain
2:53 PM 43.0 °F - 37.0 °F 80% 29.97 in 10.0 mi Calm Calm - 0.00 in   Overcast
3:53 PM 43.0 °F 41.3 °F 36.0 °F 76% 29.95 in 10.0 mi SSW 3.5 mph - 0.00 in   Overcast
4:53 PM 43.0 °F - 35.1 °F 74% 29.95 in 10.0 mi Calm Calm - N/A   Overcast
5:53 PM 43.0 °F - 36.0 °F 76% 29.95 in 10.0 mi Calm Calm - N/A   Overcast
6:53 PM 43.0 °F - 36.0 °F 76% 29.96 in 10.0 mi Calm Calm - N/A   Overcast
7:53 PM 42.1 °F - 37.0 °F 82% 29.94 in 10.0 mi Calm Calm - N/A   Overcast
8:53 PM 42.1 °F 40.2 °F 36.0 °F 79% 29.94 in 10.0 mi West 3.5 mph - N/A   Overcast
9:53 PM 42.1 °F - 37.0 °F 82% 29.94 in 10.0 mi Calm Calm - N/A   Overcast
10:53 PM 41.0 °F - 37.0 °F 86% 29.93 in 10.0 mi Calm Calm - 0.00 in   Light Drizzle
11:53 PM 41.0 °F - 37.0 °F 86% 29.91 in 10.0 mi Calm Calm - 0.00 in   Overcast